Regional Weather Roundup
Issued by NWS

Home | Current Version | Previous Version | Text Only | Print | Product List | Glossary Off
Versions: 1 2 3 4 5 6 7 8 9 10 11 12 13 14 15 16 17 18 19 20 21 22 23 24 25 26 27 28 29 30 31 32 33 34 35 36 37 38 39 40 41 42 43 44 45 46 47 48 49 50

000
ASUS43 KIND 231500
RWRIN

WEATHER ROUNDUP FOR INDIANA
NATIONAL WEATHER SERVICE INDIANAPOLIS IN
1100 AM EDT WED AUG 23 2017

NOTE: "FAIR" INDICATES FEW OR NO CLOUDS BELOW 12,000 FEET WITH NO
SIGNIFICANT WEATHER AND/OR OBSTRUCTIONS TO VISIBILITY.

* - STATION DOES NOT REPORT WEATHER SUCH AS PRECIPITATION OR FOG.

+ - STATION NOT QUALITY CONTROLLED BY THE NATIONAL WEATHER SERVICE.
    USE DATA WITH CAUTION...ESPECIALLY DEWPOINT AND RELATIVE
    HUMIDITY OBSERVATIONS.

INZ001>003-010>013-019-020-231600-
NORTHWEST INDIANA

CITY           SKY/WX    TMP DP  RH WIND       PRES   REMARKS
GARY /AIRPORT/ SUNNY     73  48  40 W12       30.05S
MICHIGAN CITY+ SUNNY     70  55  60 NW10G18   30.04R
MONTICELLO +   SUNNY     67  57  70 W6        30.05S

$$

LMZ046-743>745-231600-
SOUTHERN LAKE MICHIGAN

STATION/POSITION TIME  TEMP    WIND        PRES    WAVE
                       AIR SEA DIR/SP/G            HT
                 (UTC) (F)     (DEG/KT/KT) (MB)    (FT)
BURNS HARBOR     1440   69     310/ 10/ 13 1017.6R
MICHIGAN CITY    1430   69     300/ 14/ 16   N/A
5NW MICH CITY    1450   68 73  320/ 14/ 17   N/A     4

$$

INZ004-005-014>016-021>024-231600-
NORTH CENTRAL INDIANA

CITY           SKY/WX    TMP DP  RH WIND       PRES   REMARKS
ELKHART        SUNNY     70  55  60 NW9G21    30.02R
GOSHEN         SUNNY     71  53  52 NW14      30.02R
PERU/GRISSOM   SUNNY     69  58  67 NW7       30.04R
SOUTH BEND     SUNNY     72  55  55 W16G22    30.02S

$$

INZ006>009-017-018-025>027-231600-
NORTHEAST INDIANA

CITY           SKY/WX    TMP DP  RH WIND       PRES   REMARKS
FORT WAYNE     MOSUNNY   72  55  55 NW7       30.03R
KENDALLVILLE + SUNNY     69  57  65 W7        30.02S

$$

INZ028-029-035-036-043>045-051>053-231600-
WEST CENTRAL INDIANA

CITY           SKY/WX    TMP DP  RH WIND       PRES   REMARKS
LAFAYETTE      SUNNY     69  56  62 NW5       30.06R
TERRE HAUTE    SUNNY     71  56  58 VRB6      30.08R

$$

INZ030>032-037>040-046>048-054>057-064-065-231600-
CENTRAL INDIANA

CITY           SKY/WX    TMP DP  RH WIND       PRES   REMARKS
ANDERSON       MOSUNNY   70  57  64 MISG      30.06R
COLUMBUS       MOSUNNY   68  59  73 N5        30.06R
GREENWOOD *+   SUNNY    N/A N/A N/A N5        30.07R
INDIANAPOLIS   MOSUNNY   72  53  51 N8        30.06R
-EAGLE CREEK   PTSUNNY   72  54  53 NW6       30.06R
KOKOMO +       SUNNY     71  58  63 NW8       30.06R
MT COMFORT *+  MOSUNNY   70  57  64 N5        30.06S
SHELBYVILLE    MOSUNNY   73  58  59 N7        30.05S

$$

INZ033-034-041-042-049-050-058-059-231600-
EAST CENTRAL INDIANA

CITY           SKY/WX    TMP DP  RH WIND       PRES   REMARKS
MUNCIE         SUNNY     72  58  61 W3        30.05R
RICHMOND +     MOSUNNY   70  57  64 W6        30.06S

$$

INZ060-061-067>069-081>083-085>088-231600-
SOUTHWEST INDIANA

CITY           SKY/WX    TMP DP  RH WIND       PRES   REMARKS
EVANSVILLE     SUNNY     72  59  63 N6        30.07S
HUNTINGBURG +  SUNNY     71  62  73 N5        30.06S

$$

INZ062-063-066-070>080-084-089>092-231600-
SOUTH CENTRAL AND SOUTHEAST INDIANA

CITY           SKY/WX    TMP DP  RH WIND       PRES   REMARKS
BLOOMINGTON    MOSUNNY   73  58  59 N6        30.07R
MADISON *+     SUNNY     72  54  53 NE5       30.07S
SEYMOUR +      MOSUNNY   75  57  53 CALM      30.06

$$




USA.gov is the U.S. government's official web portal to all federal, state and local government web resources and services.